Weather History for KAEL - October, 2012

Change the Weather History Date:

Wednesday, October 3, 2012

  Actual Average Record
Temperature  
Mean Temperature 57 °F -  
Max Temperature 75 °F 63 °F 91 °F (1997)
Min Temperature 39 °F 41 °F 26 °F (1996)
Degree Days  
Heating Degree Days 8    
Growing Degree Days 7 (Base 50)    
Moisture  
Dew Point 41 °F    
Average Humidity 58    
Maximum Humidity 93    
Minimum Humidity 27    
Precipitation  
Precipitation 0.00 in - - ()
Sea Level Pressure  
Sea Level Pressure 29.89 in    
Wind  
Wind Speed 4 mph (SSE)    
Max Wind Speed 16 mph    
Max Gust Speed 23 mph    
Visibility 9 miles    
Events      
Averages and records for this station are not official NWS values.
T = Trace of Precipitation, MM = Missing Value Source: NWS Daily Summary

Daily Weather History Graph

Daily Weather History Graph

Search for Another Location

Airport or City:

Trip Planner

Search our weather history database for the weather conditions in past years. The results will help you decide how hot, cold, wet, or windy it might be!

Date:

Astronomy

Oct. 03, 2012 Rise Set
Actual Time 7:13 AM CDT 6:49 PM CDT
Civil Twilight 6:45 AM CDT 7:18 PM CDT
Nautical Twilight 6:12 AM CDT 7:51 PM CDT
Astronomical Twilight 5:38 AM CDT 8:25 PM CDT
Moon 8:34 PM CDT (10/3) 10:45 AM CDT (10/3)
Length of Visible Light 12h 33m
Length of Day
11h 35m
Waning Gibbous, 88% of the Moon is Illuminated
Oct 3
Waning Gibbous
Oct 8
Last Quarter
Oct 15
New
Oct 21
First Quarter
Oct 29
Full

Hourly Weather History & Observations

Time (CDT) Temp. Windchill Dew Point Humidity Pressure Visibility Wind Dir Wind Speed Gust Speed Precip Events Conditions
12:13 AM 46.4 °F 44.3 °F 41.0 °F 81% 29.89 in 10.0 mi SE 4.6 mph - N/A   Clear
12:33 AM 44.6 °F - 42.8 °F 93% 29.90 in 10.0 mi Calm Calm - N/A   Clear
12:53 AM 44.6 °F - 39.2 °F 81% 29.90 in 10.0 mi Calm Calm - N/A   Clear
1:13 AM 44.6 °F - 39.2 °F 81% 29.90 in 10.0 mi Calm Calm - N/A   Clear
1:33 AM 44.6 °F - 39.2 °F 81% 29.91 in 10.0 mi Calm Calm - N/A   Clear
1:53 AM 42.8 °F - 39.2 °F 87% 29.91 in 10.0 mi Calm Calm - N/A   Clear
2:13 AM 44.6 °F 43.1 °F 37.4 °F 76% 29.90 in 10.0 mi SSE 3.5 mph - N/A   Clear
2:33 AM 41.0 °F - 39.2 °F 93% 29.90 in 10.0 mi Calm Calm - N/A   Clear
2:53 AM 42.8 °F - 39.2 °F 87% 29.90 in 10.0 mi Calm Calm - N/A   Clear
3:13 AM 44.6 °F - 37.4 °F 76% 29.90 in 10.0 mi Calm Calm - N/A   Clear
3:33 AM 42.8 °F - 37.4 °F 81% 29.90 in 10.0 mi Calm Calm - N/A   Clear
3:53 AM 42.8 °F - 37.4 °F 81% 29.90 in 10.0 mi Calm Calm - N/A   Clear
4:13 AM 41.0 °F - 37.4 °F 87% 29.91 in 10.0 mi Calm Calm - N/A   Clear
4:33 AM 39.2 °F - 37.4 °F 93% 29.91 in 7.0 mi Calm Calm - N/A   Clear
4:53 AM 39.2 °F - 35.6 °F 87% 29.91 in 10.0 mi Calm Calm - N/A   Clear
5:12 AM 39.2 °F - 35.6 °F 87% 29.91 in 7.0 mi Calm Calm - N/A   Clear
5:33 AM 39.2 °F - 37.4 °F 93% 29.92 in 7.0 mi Calm Calm - N/A   Clear
5:53 AM 39.2 °F - 37.4 °F 93% 29.92 in 7.0 mi Calm Calm - N/A   Clear
6:12 AM 39.2 °F - 37.4 °F 93% 29.92 in 7.0 mi Calm Calm - N/A   Clear
6:33 AM 41.0 °F - 37.4 °F 87% 29.92 in 7.0 mi Calm Calm - N/A   Clear
6:53 AM 41.0 °F - 37.4 °F 87% 29.92 in 7.0 mi Calm Calm - N/A   Clear
7:12 AM 42.8 °F - 39.2 °F 87% 29.93 in 7.0 mi Calm Calm - N/A   Clear
7:33 AM 42.8 °F - 39.2 °F 87% 29.93 in 7.0 mi Calm Calm - N/A   Clear
7:53 AM 42.8 °F - 39.2 °F 87% 29.93 in 7.0 mi Calm Calm - N/A   Clear
8:13 AM 46.4 °F - 42.8 °F 87% 29.93 in 7.0 mi Calm Calm - N/A   Clear
8:33 AM 48.2 °F - 44.6 °F 87% 29.93 in 7.0 mi SSE 3.5 mph - N/A   Clear
8:53 AM 51.8 °F - 44.6 °F 76% 29.93 in 7.0 mi South 4.6 mph - N/A   Clear
9:13 AM 55.4 °F - 44.6 °F 67% 29.93 in 7.0 mi South 4.6 mph - N/A   Clear
9:33 AM 55.4 °F - 44.6 °F 67% 29.93 in 7.0 mi South 8.1 mph - N/A   Clear
9:53 AM 57.2 °F - 46.4 °F 67% 29.93 in 7.0 mi SSE 8.1 mph - N/A   Clear
10:13 AM 60.8 °F - 46.4 °F 59% 29.93 in 7.0 mi SSE 6.9 mph - N/A   Clear
10:32 AM 62.6 °F - 44.6 °F 52% 29.93 in 10.0 mi South 6.9 mph - N/A   Clear
10:53 AM 64.4 °F - 44.6 °F 49% 29.93 in 10.0 mi SSE 6.9 mph - N/A   Clear
11:13 AM 68.0 °F - 42.8 °F 40% 29.92 in 10.0 mi SSE 6.9 mph - N/A   Clear
11:32 AM 69.8 °F - 42.8 °F 38% 29.92 in 10.0 mi SSE 9.2 mph - N/A   Clear
11:53 AM 71.6 °F - 42.8 °F 35% 29.91 in 10.0 mi SSE 11.5 mph 17.3 mph N/A   Clear
12:13 PM 71.6 °F - 41.0 °F 33% 29.90 in 10.0 mi SSE 8.1 mph - N/A   Clear
12:53 PM 73.4 °F - 41.0 °F 31% 29.89 in 10.0 mi SSW 9.2 mph - N/A   Clear
1:13 PM 73.4 °F - 41.0 °F 31% 29.89 in 10.0 mi SSE 10.4 mph 17.3 mph N/A   Clear
1:32 PM 73.4 °F - 39.2 °F 29% 29.88 in 10.0 mi SSE 13.8 mph 18.4 mph N/A   Clear
1:53 PM 73.4 °F - 39.2 °F 29% 29.87 in 10.0 mi SSE 12.7 mph 16.1 mph N/A   Clear
2:12 PM 75.2 °F - 39.2 °F 27% 29.86 in 10.0 mi South 13.8 mph 19.6 mph N/A   Clear
2:33 PM 75.2 °F - 39.2 °F 27% 29.85 in 10.0 mi SSE 10.4 mph - N/A   Clear
2:53 PM 75.2 °F - 39.2 °F 27% 29.84 in 10.0 mi SSE 16.1 mph - N/A   Clear
3:13 PM 75.2 °F - 39.2 °F 27% 29.84 in 10.0 mi SSE 15.0 mph 23.0 mph N/A   Clear
3:33 PM 75.2 °F - 39.2 °F 27% 29.84 in 10.0 mi South 12.7 mph 19.6 mph N/A   Clear
3:53 PM 75.2 °F - 39.2 °F 27% 29.84 in 10.0 mi SSE 10.4 mph - N/A   Clear
4:13 PM 75.2 °F - 39.2 °F 27% 29.84 in 10.0 mi South 15.0 mph 18.4 mph N/A   Clear
4:33 PM 75.2 °F - 39.2 °F 27% 29.84 in 10.0 mi SSE 15.0 mph 20.7 mph N/A   Clear
4:53 PM 75.2 °F - 41.0 °F 29% 29.84 in 10.0 mi SSE 12.7 mph 19.6 mph N/A   Clear
5:13 PM 75.2 °F - 39.2 °F 27% 29.84 in 10.0 mi SE 13.8 mph 20.7 mph N/A   Clear
5:33 PM 75.2 °F - 41.0 °F 29% 29.84 in 10.0 mi SSE 12.7 mph - N/A   Clear
5:53 PM 73.4 °F - 41.0 °F 31% 29.84 in 10.0 mi South 9.2 mph - N/A   Clear
6:13 PM 73.4 °F - 41.0 °F 31% 29.85 in 10.0 mi South 10.4 mph - N/A   Clear
6:33 PM 71.6 °F - 41.0 °F 33% 29.85 in 10.0 mi South 5.8 mph - N/A   Clear
6:53 PM 69.8 °F - 41.0 °F 35% 29.86 in 10.0 mi South 5.8 mph - N/A   Clear
7:13 PM 68.0 °F - 41.0 °F 37% 29.87 in 10.0 mi South 4.6 mph - N/A   Clear
7:33 PM 66.2 °F - 42.8 °F 43% 29.87 in 10.0 mi SSE 5.8 mph - N/A   Clear
7:53 PM 64.4 °F - 42.8 °F 45% 29.87 in 10.0 mi SSE 5.8 mph - N/A   Clear
8:13 PM 64.4 °F - 42.8 °F 45% 29.88 in 10.0 mi SSE 4.6 mph - N/A   Clear
8:33 PM 62.6 °F - 42.8 °F 48% 29.88 in 10.0 mi SSE 5.8 mph - N/A   Clear
8:53 PM 62.6 °F - 44.6 °F 52% 29.88 in 10.0 mi SSE 6.9 mph - N/A   Clear
9:33 PM 60.8 °F - 44.6 °F 55% 29.88 in 10.0 mi SSE 6.9 mph - N/A   Clear
9:53 PM 62.6 °F - 44.6 °F 52% 29.88 in 10.0 mi SSE 8.1 mph - N/A   Clear
10:13 PM 60.8 °F - 44.6 °F 55% 29.89 in 10.0 mi SSE 8.1 mph - N/A   Clear
10:33 PM 60.8 °F - 44.6 °F 55% 29.89 in 10.0 mi SSE 8.1 mph - N/A   Clear
10:53 PM 60.8 °F - 44.6 °F 55% 29.89 in 10.0 mi SSE 8.1 mph - N/A   Clear
11:13 PM 60.8 °F - 44.6 °F 55% 29.89 in 10.0 mi SSE 8.1 mph - N/A   Clear
11:33 PM 59.0 °F - 42.8 °F 55% 29.89 in 10.0 mi SSE 9.2 mph - N/A   Clear
11:53 PM 59.0 °F - 44.6 °F 59% 29.88 in 10.0 mi SSE 9.2 mph - N/A   Clear